Time,TemperatureF,DewpointF,PressureIn,WindDirection,WindDirectionDegrees,WindSpeedMPH,WindSpeedGustMPH,Humidity,HourlyPrecipIn,Conditions,Clouds,dailyrainin,SoftwareType,DateUTC
2014-03-03 00:03:00,42.1,34.1,29.24,SE,135,7.6,7.6,73,0.00,,,0.00,WUHU216HW,2014-03-02 23:03:00,
2014-03-03 00:08:00,42.1,34.1,29.23,ESE,113,7.2,8.5,73,0.00,,,0.00,WUHU216HW,2014-03-02 23:08:00,
2014-03-03 00:13:00,41.9,33.9,29.23,South,180,4.7,9.8,73,0.00,,,0.00,WUHU216HW,2014-03-02 23:13:00,
2014-03-03 00:18:00,41.9,33.9,29.23,SE,135,4.9,9.8,73,0.00,,,0.00,WUHU216HW,2014-03-02 23:18:00,
2014-03-03 00:23:00,42.1,34.1,29.22,South,180,5.1,7.4,73,0.00,,,0.00,WUHU216HW,2014-03-02 23:23:00,
2014-03-03 00:28:00,42.1,34.1,29.22,SE,135,2.5,5.8,73,0.00,,,0.00,WUHU216HW,2014-03-02 23:28:00,
2014-03-03 00:33:00,42.1,34.1,29.21,SSW,203,4.5,7.6,73,0.00,,,0.00,WUHU216HW,2014-03-02 23:33:00,
2014-03-03 00:38:00,42.1,33.8,29.22,SSE,158,6.7,7.6,72,0.00,,,0.00,WUHU216HW,2014-03-02 23:38:00,
2014-03-03 00:43:00,42.1,33.8,29.21,SE,135,5.4,8.3,72,0.00,,,0.00,WUHU216HW,2014-03-02 23:43:00,
2014-03-03 00:48:00,42.1,33.8,29.21,ESE,113,5.4,8.3,72,0.00,,,0.00,WUHU216HW,2014-03-02 23:48:00,
2014-03-03 00:53:00,42.1,33.8,29.21,ESE,113,5.8,8.7,72,0.00,,,0.00,WUHU216HW,2014-03-02 23:53:00,
2014-03-03 00:58:00,42.1,34.1,29.21,SSW,203,6.3,8.7,73,0.00,,,0.00,WUHU216HW,2014-03-02 23:58:00,
2014-03-03 01:03:00,42.1,34.1,29.21,SE,135,4.0,6.9,73,0.00,,,0.00,WUHU216HW,2014-03-03 00:03:00,
2014-03-03 01:08:00,42.1,33.8,29.21,ESE,113,7.6,8.1,72,0.00,,,0.00,WUHU216HW,2014-03-03 00:08:00,
2014-03-03 01:13:00,42.1,33.8,29.20,SSE,158,5.4,8.1,72,0.00,,,0.00,WUHU216HW,2014-03-03 00:13:00,
2014-03-03 01:18:00,42.1,34.1,29.20,ESE,113,4.3,7.4,73,0.00,,,0.00,WUHU216HW,2014-03-03 00:18:00,
2014-03-03 01:23:00,42.1,33.8,29.19,ESE,113,6.9,6.9,72,0.00,,,0.00,WUHU216HW,2014-03-03 00:23:00,
2014-03-03 01:28:00,42.1,33.8,29.19,SE,135,5.4,6.9,72,0.00,,,0.00,WUHU216HW,2014-03-03 00:28:00,
2014-03-03 01:33:00,42.1,33.8,29.19,SE,135,2.5,6.5,72,0.00,,,0.00,WUHU216HW,2014-03-03 00:33:00,
2014-03-03 01:38:00,42.1,33.8,29.19,South,180,6.3,9.8,72,0.00,,,0.00,WUHU216HW,2014-03-03 00:38:00,
2014-03-03 01:43:00,42.1,33.8,29.18,SSE,158,4.0,9.8,72,0.00,,,0.00,WUHU216HW,2014-03-03 00:43:00,
2014-03-03 01:48:00,42.1,33.5,29.18,SSE,158,3.6,8.5,71,0.00,,,0.00,WUHU216HW,2014-03-03 00:48:00,
2014-03-03 01:53:00,42.3,33.7,29.18,South,180,6.9,8.5,71,0.00,,,0.00,WUHU216HW,2014-03-03 00:53:00,
2014-03-03 01:58:00,42.3,33.7,29.18,ESE,113,5.4,6.9,71,0.00,,,0.00,WUHU216HW,2014-03-03 00:58:00,
2014-03-03 02:03:00,42.3,33.9,29.17,SSE,158,5.8,7.2,72,0.00,,,0.00,WUHU216HW,2014-03-03 01:03:00,
2014-03-03 02:08:00,42.1,33.8,29.17,ESE,113,5.6,7.2,72,0.00,,,0.00,WUHU216HW,2014-03-03 01:08:00,
2014-03-03 02:13:00,42.1,33.8,29.17,ESE,113,1.8,6.0,72,0.00,,,0.00,WUHU216HW,2014-03-03 01:13:00,
2014-03-03 02:18:00,42.1,33.8,29.16,South,180,3.8,6.0,72,0.00,,,0.00,WUHU216HW,2014-03-03 01:18:00,
2014-03-03 02:23:00,42.1,33.8,29.16,ESE,113,3.8,5.4,72,0.00,,,0.00,WUHU216HW,2014-03-03 01:23:00,
2014-03-03 02:28:00,42.1,33.8,29.16,ENE,68,2.5,5.4,72,0.00,,,0.00,WUHU216HW,2014-03-03 01:28:00,
2014-03-03 02:33:00,42.1,33.8,29.16,ENE,68,2.2,5.4,72,0.00,,,0.00,WUHU216HW,2014-03-03 01:33:00,
2014-03-03 02:38:00,42.1,33.8,29.15,ESE,113,2.9,4.9,72,0.00,,,0.00,WUHU216HW,2014-03-03 01:38:00,
2014-03-03 02:43:00,42.1,33.8,29.15,SE,135,4.7,4.9,72,0.00,,,0.00,WUHU216HW,2014-03-03 01:43:00,
2014-03-03 02:48:00,42.1,33.8,29.14,ENE,68,3.4,6.3,72,0.00,,,0.00,WUHU216HW,2014-03-03 01:48:00,
2014-03-03 02:53:00,42.1,34.1,29.14,SSW,203,5.6,6.3,73,0.00,,,0.00,WUHU216HW,2014-03-03 01:53:00,
2014-03-03 02:58:00,42.1,34.1,29.14,East,90,2.7,5.6,73,0.00,,,0.00,WUHU216HW,2014-03-03 01:58:00,
2014-03-03 03:03:00,42.1,34.1,29.13,East,90,4.7,5.8,73,0.00,,,0.00,WUHU216HW,2014-03-03 02:03:00,
2014-03-03 03:08:00,42.1,34.1,29.13,ESE,113,3.4,5.8,73,0.00,,,0.00,WUHU216HW,2014-03-03 02:08:00,
2014-03-03 03:13:00,42.1,34.1,29.12,NW,315,5.8,7.4,73,0.00,,,0.00,WUHU216HW,2014-03-03 02:13:00,
2014-03-03 03:18:00,42.1,34.1,29.12,East,90,2.5,7.4,73,0.00,,,0.00,WUHU216HW,2014-03-03 02:18:00,
2014-03-03 03:23:00,42.1,34.1,29.12,SE,135,3.6,6.7,73,0.00,,,0.00,WUHU216HW,2014-03-03 02:23:00,
2014-03-03 03:28:00,42.1,34.1,29.12,SSE,158,3.4,6.7,73,0.00,,,0.00,WUHU216HW,2014-03-03 02:28:00,
2014-03-03 03:33:00,42.1,34.1,29.11,East,90,2.5,5.4,73,0.00,,,0.00,WUHU216HW,2014-03-03 02:33:00,
2014-03-03 03:38:00,41.9,34.2,29.11,SE,135,3.4,4.5,74,0.00,,,0.00,WUHU216HW,2014-03-03 02:38:00,
2014-03-03 03:43:00,41.9,34.2,29.11,ESE,113,4.9,4.9,74,0.00,,,0.00,WUHU216HW,2014-03-03 02:43:00,
2014-03-03 03:48:00,41.9,34.2,29.11,East,90,5.1,5.1,74,0.00,,,0.00,WUHU216HW,2014-03-03 02:48:00,
2014-03-03 03:53:00,41.9,34.2,29.11,SE,135,2.0,5.1,74,0.00,,,0.00,WUHU216HW,2014-03-03 02:53:00,
2014-03-03 03:58:00,41.9,34.2,29.10,SSE,158,1.8,5.4,74,0.00,,,0.00,WUHU216HW,2014-03-03 02:58:00,
2014-03-03 04:03:00,42.1,34.4,29.10,SSE,158,1.8,6.0,74,0.00,,,0.00,WUHU216HW,2014-03-03 03:03:00,
2014-03-03 04:08:00,42.1,34.4,29.10,SE,135,2.7,6.0,74,0.00,,,0.00,WUHU216HW,2014-03-03 03:08:00,
2014-03-03 04:13:00,42.1,34.4,29.10,East,90,5.1,5.1,74,0.00,,,0.00,WUHU216HW,2014-03-03 03:13:00,
2014-03-03 04:19:00,42.1,34.4,29.10,SSE,158,2.5,6.5,74,0.00,,,0.00,WUHU216HW,2014-03-03 03:19:00,
2014-03-03 04:24:00,42.3,34.3,29.09,East,90,3.1,6.7,73,0.00,,,0.00,WUHU216HW,2014-03-03 03:24:00,
2014-03-03 04:29:00,42.3,34.3,29.09,ESE,113,7.4,7.4,73,0.00,,,0.00,WUHU216HW,2014-03-03 03:29:00,
2014-03-03 04:34:00,42.3,34.3,29.09,WNW,293,4.5,7.4,73,0.00,,,0.00,WUHU216HW,2014-03-03 03:34:00,
2014-03-03 04:39:00,42.5,34.5,29.09,ESE,113,2.2,5.4,73,0.00,,,0.00,WUHU216HW,2014-03-03 03:39:00,
2014-03-03 04:44:00,42.5,34.5,29.09,SE,135,4.0,5.8,73,0.00,,,0.00,WUHU216HW,2014-03-03 03:44:00,
2014-03-03 04:49:00,42.5,34.5,29.09,East,90,4.7,6.9,73,0.00,,,0.00,WUHU216HW,2014-03-03 03:49:00,
2014-03-03 04:54:00,42.5,34.5,29.09,ESE,113,5.4,6.9,73,0.00,,,0.00,WUHU216HW,2014-03-03 03:54:00,
2014-03-03 04:59:00,42.5,34.5,29.09,East,90,5.4,5.4,73,0.00,,,0.00,WUHU216HW,2014-03-03 03:59:00,
2014-03-03 05:04:00,42.5,34.5,29.09,SE,135,1.6,5.4,73,0.00,,,0.00,WUHU216HW,2014-03-03 04:04:00,
2014-03-03 05:09:00,42.5,34.7,29.09,ESE,113,1.6,4.0,74,0.00,,,0.00,WUHU216HW,2014-03-03 04:09:00,
2014-03-03 05:14:00,42.5,34.7,29.09,East,90,3.6,4.0,74,0.00,,,0.00,WUHU216HW,2014-03-03 04:14:00,
2014-03-03 05:19:00,42.5,35.1,29.09,SE,135,4.5,4.5,75,0.00,,,0.00,WUHU216HW,2014-03-03 04:19:00,
2014-03-03 05:24:00,42.3,34.9,29.09,SE,135,3.4,4.5,75,0.00,,,0.00,WUHU216HW,2014-03-03 04:24:00,
2014-03-03 05:29:00,42.3,35.3,29.09,ESE,113,2.5,4.5,76,0.00,,,0.00,WUHU216HW,2014-03-03 04:29:00,
2014-03-03 05:34:00,42.1,35.1,29.09,ESE,113,1.8,4.0,76,0.00,,,0.00,WUHU216HW,2014-03-03 04:34:00,
2014-03-03 05:39:00,42.1,35.1,29.08,SSE,158,2.7,3.8,76,0.00,,,0.00,WUHU216HW,2014-03-03 04:39:00,
2014-03-03 05:44:00,42.1,35.4,29.09,South,180,4.9,5.4,77,0.00,,,0.00,WUHU216HW,2014-03-03 04:44:00,
2014-03-03 05:49:00,42.1,35.4,29.09,SSE,158,2.2,8.3,77,0.00,,,0.00,WUHU216HW,2014-03-03 04:49:00,
2014-03-03 05:54:00,42.1,35.4,29.08,SE,135,3.6,8.3,77,0.00,,,0.00,WUHU216HW,2014-03-03 04:54:00,
2014-03-03 05:59:00,42.1,35.7,29.08,SE,135,3.8,8.1,78,0.00,,,0.00,WUHU216HW,2014-03-03 04:59:00,
2014-03-03 06:01:00,42.1,36.0,29.08,SE,135,11.9,11.9,79,0.00,,,0.00,WUHU216HW,2014-03-03 05:01:00,
2014-03-03 06:06:00,42.1,36.6,29.08,SSE,158,8.5,11.9,81,0.00,,,0.00,WUHU216HW,2014-03-03 05:06:00,
2014-03-03 06:11:00,42.1,36.6,29.08,SSE,158,5.1,11.6,81,0.00,,,0.00,WUHU216HW,2014-03-03 05:11:00,
2014-03-03 06:16:00,42.1,36.6,29.08,SE,135,7.8,8.9,81,0.01,,,0.01,WUHU216HW,2014-03-03 05:16:00,
2014-03-03 06:21:00,41.9,36.5,29.08,SE,135,6.7,8.5,81,0.01,,,0.01,WUHU216HW,2014-03-03 05:21:00,
2014-03-03 06:27:00,41.8,36.6,29.08,East,90,6.5,8.5,82,0.01,,,0.01,WUHU216HW,2014-03-03 05:27:00,
2014-03-03 06:32:00,41.8,36.6,29.08,SSE,158,11.4,11.4,82,0.01,,,0.01,WUHU216HW,2014-03-03 05:32:00,
2014-03-03 06:37:00,41.8,36.6,29.08,SE,135,6.9,11.4,82,0.01,,,0.01,WUHU216HW,2014-03-03 05:37:00,
2014-03-03 06:42:00,41.6,36.7,29.08,SSW,203,7.2,9.8,83,0.01,,,0.01,WUHU216HW,2014-03-03 05:42:00,
2014-03-03 06:47:00,41.6,36.7,29.08,SSE,158,6.5,9.4,83,0.01,,,0.01,WUHU216HW,2014-03-03 05:47:00,
2014-03-03 06:52:00,41.4,36.5,29.08,SSE,158,6.3,8.7,83,0.02,,,0.02,WUHU216HW,2014-03-03 05:52:00,
2014-03-03 06:57:00,41.4,36.9,29.08,SSE,158,8.9,8.9,84,0.02,,,0.02,WUHU216HW,2014-03-03 05:57:00,
2014-03-03 07:02:00,41.2,36.7,29.08,SSE,158,6.5,9.2,84,0.02,,,0.02,WUHU216HW,2014-03-03 06:02:00,
2014-03-03 07:07:00,41.2,36.7,29.08,SSE,158,6.0,9.2,84,0.02,,,0.02,WUHU216HW,2014-03-03 06:07:00,
2014-03-03 07:12:00,41.2,36.7,29.08,South,180,7.2,8.5,84,0.02,,,0.02,WUHU216HW,2014-03-03 06:12:00,
2014-03-03 07:17:00,41.0,36.8,29.08,SSE,158,6.5,7.2,85,0.02,,,0.03,WUHU216HW,2014-03-03 06:17:00,
2014-03-03 07:22:00,41.0,37.1,29.08,SSW,203,6.5,9.8,86,0.02,,,0.03,WUHU216HW,2014-03-03 06:22:00,
2014-03-03 07:27:00,41.0,37.1,29.08,SSW,203,5.6,9.8,86,0.02,,,0.03,WUHU216HW,2014-03-03 06:27:00,
2014-03-03 07:32:00,41.0,37.1,29.08,SE,135,2.5,7.2,86,0.02,,,0.03,WUHU216HW,2014-03-03 06:32:00,
2014-03-03 07:37:00,40.9,36.9,29.08,SSE,158,3.4,6.7,86,0.02,,,0.03,WUHU216HW,2014-03-03 06:37:00,
2014-03-03 07:42:00,40.9,36.9,29.08,SE,135,3.4,5.6,86,0.02,,,0.03,WUHU216HW,2014-03-03 06:42:00,
2014-03-03 07:47:00,40.9,36.9,29.08,SSE,158,2.7,4.9,86,0.01,,,0.03,WUHU216HW,2014-03-03 06:47:00,
2014-03-03 07:52:00,40.9,37.3,29.08,SE,135,6.5,6.7,87,0.02,,,0.03,WUHU216HW,2014-03-03 06:52:00,
2014-03-03 07:57:00,40.9,37.3,29.08,SE,135,6.3,6.9,87,0.02,,,0.03,WUHU216HW,2014-03-03 06:57:00,
2014-03-03 08:02:00,40.7,37.1,29.08,SE,135,6.5,6.9,87,0.02,,,0.03,WUHU216HW,2014-03-03 07:02:00,
2014-03-03 08:07:00,40.7,37.1,29.08,SE,135,5.1,6.5,87,0.02,,,0.03,WUHU216HW,2014-03-03 07:07:00,
2014-03-03 08:12:00,40.7,37.1,29.08,South,180,7.2,9.2,87,0.01,,,0.03,WUHU216HW,2014-03-03 07:12:00,
2014-03-03 08:17:00,40.7,37.1,29.08,SSW,203,8.5,9.2,87,0.01,,,0.03,WUHU216HW,2014-03-03 07:17:00,
2014-03-03 08:22:00,40.7,37.1,29.08,East,90,6.3,8.5,87,0.01,,,0.03,WUHU216HW,2014-03-03 07:22:00,
2014-03-03 08:27:00,40.7,37.1,29.08,SE,135,4.0,7.4,87,0.01,,,0.03,WUHU216HW,2014-03-03 07:27:00,
2014-03-03 08:32:00,40.7,37.1,29.09,SSE,158,4.0,6.7,87,0.01,,,0.03,WUHU216HW,2014-03-03 07:32:00,
2014-03-03 08:37:00,40.7,37.1,29.09,SSE,158,4.0,7.6,87,0.01,,,0.03,WUHU216HW,2014-03-03 07:37:00,
2014-03-03 08:42:00,40.7,37.1,29.09,South,180,4.5,7.6,87,0.01,,,0.03,WUHU216HW,2014-03-03 07:42:00,
2014-03-03 08:47:00,40.7,37.4,29.09,SSE,158,4.0,7.6,88,0.01,,,0.03,WUHU216HW,2014-03-03 07:47:00,
2014-03-03 08:52:00,40.7,37.1,29.09,SSE,158,4.7,7.6,87,0.00,,,0.03,WUHU216HW,2014-03-03 07:52:00,
2014-03-03 08:57:00,40.7,37.4,29.09,South,180,7.4,7.4,88,0.00,,,0.03,WUHU216HW,2014-03-03 07:57:00,
2014-03-03 09:02:00,40.7,37.4,29.09,SE,135,5.4,7.4,88,0.00,,,0.03,WUHU216HW,2014-03-03 08:02:00,
2014-03-03 09:07:00,40.9,37.5,29.09,SE,135,7.8,7.8,88,0.00,,,0.03,WUHU216HW,2014-03-03 08:07:00,
2014-03-03 09:12:00,40.9,37.5,29.09,SE,135,5.4,7.8,88,0.00,,,0.03,WUHU216HW,2014-03-03 08:12:00,
2014-03-03 09:17:00,40.9,37.5,29.09,SSE,158,4.5,8.3,88,0.00,,,0.03,WUHU216HW,2014-03-03 08:17:00,
2014-03-03 09:22:00,40.9,37.9,29.09,SSE,158,3.6,8.3,89,0.00,,,0.03,WUHU216HW,2014-03-03 08:22:00,
2014-03-03 09:27:00,40.9,37.9,29.10,SE,135,5.1,7.8,89,0.00,,,0.03,WUHU216HW,2014-03-03 08:27:00,
2014-03-03 09:32:00,40.9,37.9,29.10,SSW,203,6.0,8.1,89,0.00,,,0.03,WUHU216HW,2014-03-03 08:32:00,
2014-03-03 09:37:00,41.0,38.1,29.10,South,180,8.5,8.5,89,0.00,,,0.03,WUHU216HW,2014-03-03 08:37:00,
2014-03-03 09:42:00,40.9,37.9,29.10,SE,135,6.7,8.5,89,0.00,,,0.03,WUHU216HW,2014-03-03 08:42:00,
2014-03-03 09:47:00,41.0,38.1,29.09,SE,135,5.8,6.7,89,0.00,,,0.03,WUHU216HW,2014-03-03 08:47:00,
2014-03-03 09:52:00,41.0,38.3,29.10,SE,135,5.4,6.0,90,0.00,,,0.03,WUHU216HW,2014-03-03 08:52:00,
2014-03-03 09:57:00,41.0,38.3,29.10,SE,135,5.4,6.0,90,0.00,,,0.03,WUHU216HW,2014-03-03 08:57:00,
2014-03-03 10:02:00,41.2,38.5,29.10,ESE,113,4.0,5.4,90,0.00,,,0.03,WUHU216HW,2014-03-03 09:02:00,
2014-03-03 10:07:00,41.2,38.5,29.10,SSE,158,3.1,5.8,90,0.00,,,0.03,WUHU216HW,2014-03-03 09:07:00,
2014-03-03 10:12:00,41.2,38.3,29.09,SSE,158,5.8,5.8,89,0.00,,,0.03,WUHU216HW,2014-03-03 09:12:00,
2014-03-03 10:17:00,41.4,38.7,29.10,South,180,4.3,5.8,90,0.00,,,0.03,WUHU216HW,2014-03-03 09:17:00,
2014-03-03 10:22:00,41.4,38.7,29.10,SSE,158,4.0,8.7,90,0.00,,,0.03,WUHU216HW,2014-03-03 09:22:00,
2014-03-03 10:27:00,41.4,38.7,29.10,South,180,6.3,8.7,90,0.00,,,0.03,WUHU216HW,2014-03-03 09:27:00,
2014-03-03 10:32:00,41.6,38.9,29.10,SE,135,4.3,6.3,90,0.00,,,0.03,WUHU216HW,2014-03-03 09:32:00,
2014-03-03 10:37:00,41.8,39.1,29.10,SSE,158,3.4,5.4,90,0.00,,,0.03,WUHU216HW,2014-03-03 09:37:00,
2014-03-03 10:42:00,42.1,39.4,29.10,SSE,158,8.7,8.7,90,0.00,,,0.03,WUHU216HW,2014-03-03 09:42:00,
2014-03-03 10:47:00,42.1,39.4,29.10,South,180,7.6,9.2,90,0.00,,,0.03,WUHU216HW,2014-03-03 09:47:00,
2014-03-03 10:52:00,42.3,39.6,29.10,South,180,7.6,9.2,90,0.00,,,0.03,WUHU216HW,2014-03-03 09:52:00,
2014-03-03 10:57:00,42.5,39.8,29.10,South,180,9.2,9.2,90,0.00,,,0.03,WUHU216HW,2014-03-03 09:57:00,
2014-03-03 11:02:00,42.5,39.8,29.11,South,180,10.1,10.1,90,0.00,,,0.03,WUHU216HW,2014-03-03 10:02:00,
2014-03-03 11:07:00,42.5,39.8,29.11,South,180,10.1,10.1,90,0.00,,,0.03,WUHU216HW,2014-03-03 10:07:00,
2014-03-03 11:32:00,42.7,39.7,29.12,South,180,7.6,7.6,89,0.00,,,0.03,WUHU216HW,2014-03-03 10:32:00,
2014-03-03 11:37:00,42.8,40.1,29.12,SSE,158,10.7,10.7,90,0.00,,,0.03,WUHU216HW,2014-03-03 10:37:00,
2014-03-03 11:42:00,42.8,39.9,29.13,South,180,8.5,11.4,89,0.00,,,0.03,WUHU216HW,2014-03-03 10:42:00,
2014-03-03 11:47:00,42.8,39.9,29.13,South,180,7.6,11.4,89,0.00,,,0.03,WUHU216HW,2014-03-03 10:47:00,
2014-03-03 11:52:00,42.8,40.1,29.13,South,180,8.9,10.5,90,0.00,,,0.03,WUHU216HW,2014-03-03 10:52:00,
2014-03-03 11:57:00,43.0,40.3,29.13,South,180,7.4,10.5,90,0.00,,,0.03,WUHU216HW,2014-03-03 10:57:00,
2014-03-03 12:02:00,43.2,40.5,29.14,South,180,7.4,9.2,90,0.00,,,0.03,WUHU216HW,2014-03-03 11:02:00,
2014-03-03 12:07:00,43.2,40.5,29.14,South,180,7.8,10.3,90,0.00,,,0.03,WUHU216HW,2014-03-03 11:07:00,
2014-03-03 12:12:00,43.6,40.9,29.14,South,180,10.1,10.3,90,0.00,,,0.03,WUHU216HW,2014-03-03 11:12:00,
2014-03-03 12:17:00,43.6,40.9,29.14,South,180,10.1,10.1,90,0.00,,,0.03,WUHU216HW,2014-03-03 11:17:00,
2014-03-03 12:22:00,43.7,41.0,29.14,South,180,9.2,10.5,90,0.00,,,0.03,WUHU216HW,2014-03-03 11:22:00,
2014-03-03 12:27:00,43.9,41.0,29.14,SSE,158,9.8,10.5,89,0.00,,,0.03,WUHU216HW,2014-03-03 11:27:00,
2014-03-03 12:32:00,43.9,41.0,29.14,South,180,8.1,9.8,89,0.00,,,0.03,WUHU216HW,2014-03-03 11:32:00,
2014-03-03 12:57:00,44.3,41.6,29.15,South,180,10.1,10.1,90,0.00,,,0.03,WUHU216HW,2014-03-03 11:57:00,
2014-03-03 13:02:00,44.3,41.6,29.15,SW,225,9.2,10.1,90,0.00,,,0.03,WUHU216HW,2014-03-03 12:02:00,
2014-03-03 13:07:00,44.5,41.5,29.15,SW,225,7.6,9.8,89,0.00,,,0.03,WUHU216HW,2014-03-03 12:07:00,
2014-03-03 13:12:00,44.6,41.7,29.16,SSW,203,5.8,9.4,89,0.00,,,0.03,WUHU216HW,2014-03-03 12:12:00,
2014-03-03 13:17:00,45.0,42.3,29.15,South,180,6.5,9.8,90,0.00,,,0.03,WUHU216HW,2014-03-03 12:17:00,
2014-03-03 13:22:00,45.2,42.5,29.16,SSW,203,8.9,9.8,90,0.00,,,0.03,WUHU216HW,2014-03-03 12:22:00,
2014-03-03 13:27:00,45.9,42.6,29.16,SSW,203,11.4,11.4,88,0.00,,,0.03,WUHU216HW,2014-03-03 12:27:00,
2014-03-03 13:32:00,46.3,42.3,29.16,South,180,8.5,11.4,86,0.00,,,0.03,WUHU216HW,2014-03-03 12:32:00,
2014-03-03 13:37:00,46.4,42.2,29.16,SSW,203,7.6,10.1,85,0.00,,,0.03,WUHU216HW,2014-03-03 12:37:00,
2014-03-03 13:42:00,46.4,42.0,29.16,SSW,203,10.1,10.1,84,0.00,,,0.03,WUHU216HW,2014-03-03 12:42:00,
2014-03-03 13:47:00,46.4,41.6,29.16,SSW,203,9.8,12.3,83,0.00,,,0.03,WUHU216HW,2014-03-03 12:47:00,
2014-03-03 13:52:00,46.4,41.3,29.16,WSW,248,11.2,12.3,82,0.00,,,0.03,WUHU216HW,2014-03-03 12:52:00,
2014-03-03 13:57:00,46.6,41.5,29.16,South,180,8.9,11.2,82,0.00,,,0.03,WUHU216HW,2014-03-03 12:57:00,
2014-03-03 14:02:00,47.0,42.1,29.16,SSW,203,11.4,11.4,83,0.00,,,0.03,WUHU216HW,2014-03-03 13:02:00,
2014-03-03 14:07:00,47.3,41.8,29.16,South,180,8.1,14.8,81,0.00,,,0.03,WUHU216HW,2014-03-03 13:07:00,
2014-03-03 14:12:00,47.5,41.7,29.17,South,180,9.2,14.8,80,0.00,,,0.03,WUHU216HW,2014-03-03 13:12:00,
2014-03-03 14:17:00,47.7,41.9,29.17,South,180,10.7,13.9,80,0.00,,,0.03,WUHU216HW,2014-03-03 13:17:00,
2014-03-03 14:18:00,47.7,41.9,29.17,South,180,10.7,13.9,80,0.00,,,0.03,WUHU216HW,2014-03-03 13:18:00,
2014-03-03 14:23:00,48.1,41.8,29.17,South,180,10.5,12.1,79,0.00,,,0.03,WUHU216HW,2014-03-03 13:23:00,
2014-03-03 14:28:00,48.4,42.5,29.17,SSW,203,11.0,11.9,80,0.00,,,0.03,WUHU216HW,2014-03-03 13:28:00,
2014-03-03 14:33:00,48.8,42.1,29.17,South,180,9.8,11.4,78,0.00,,,0.03,WUHU216HW,2014-03-03 13:33:00,
2014-03-03 14:38:00,49.1,41.9,29.18,SW,225,12.3,12.3,76,0.00,,,0.03,WUHU216HW,2014-03-03 13:38:00,
2014-03-03 14:43:00,49.1,40.8,29.18,SSW,203,9.2,12.5,73,0.00,,,0.03,WUHU216HW,2014-03-03 13:43:00,
2014-03-03 14:48:00,49.0,41.3,29.18,SW,225,9.4,12.5,75,0.00,,,0.03,WUHU216HW,2014-03-03 13:48:00,
2014-03-03 14:53:00,49.5,41.5,29.18,SSW,203,10.7,11.9,74,0.00,,,0.03,WUHU216HW,2014-03-03 13:53:00,
2014-03-03 14:58:00,49.5,40.5,29.18,SSW,203,9.2,12.5,71,0.00,,,0.03,WUHU216HW,2014-03-03 13:58:00,
2014-03-03 15:03:00,49.9,41.2,29.18,South,180,12.1,12.5,72,0.00,,,0.03,WUHU216HW,2014-03-03 14:03:00,
2014-03-03 15:08:00,50.0,41.7,29.18,SSW,203,7.6,12.1,73,0.00,,,0.03,WUHU216HW,2014-03-03 14:08:00,
2014-03-03 15:13:00,50.0,40.7,29.19,South,180,11.2,12.1,70,0.00,,,0.03,WUHU216HW,2014-03-03 14:13:00,
2014-03-03 15:18:00,50.4,41.4,29.19,South,180,9.6,12.1,71,0.00,,,0.03,WUHU216HW,2014-03-03 14:18:00,
2014-03-03 15:23:00,50.6,42.2,29.19,SSW,203,7.6,10.7,73,0.00,,,0.03,WUHU216HW,2014-03-03 14:23:00,
2014-03-03 15:28:00,50.8,42.1,29.19,South,180,7.4,10.7,72,0.00,,,0.03,WUHU216HW,2014-03-03 14:28:00,
2014-03-03 15:33:00,50.6,41.6,29.19,SSW,203,10.7,11.6,71,0.00,,,0.03,WUHU216HW,2014-03-03 14:33:00,
2014-03-03 15:38:00,50.0,41.4,29.19,South,180,8.9,11.6,72,0.01,,,0.03,WUHU216HW,2014-03-03 14:38:00,
2014-03-03 15:43:00,50.2,41.6,29.19,South,180,15.2,15.2,72,0.01,,,0.05,WUHU216HW,2014-03-03 14:43:00,
2014-03-03 15:48:00,50.6,40.4,29.20,South,180,14.8,15.2,68,0.01,,,0.05,WUHU216HW,2014-03-03 14:48:00,
2014-03-03 15:53:00,50.8,41.8,29.20,South,180,11.6,14.8,71,0.01,,,0.05,WUHU216HW,2014-03-03 14:53:00,
2014-03-03 15:58:00,50.8,40.6,29.20,SSE,158,10.5,12.3,68,0.01,,,0.05,WUHU216HW,2014-03-03 14:58:00,
2014-03-03 16:03:00,51.1,40.2,29.20,South,180,12.8,12.8,66,0.01,,,0.05,WUHU216HW,2014-03-03 15:03:00,
2014-03-03 16:08:00,51.1,40.2,29.20,South,180,12.8,12.8,66,0.01,,,0.05,WUHU216HW,2014-03-03 15:08:00,
2014-03-03 16:33:00,51.8,41.2,29.21,SSE,158,5.6,5.6,67,0.01,,,0.05,WUHU216HW,2014-03-03 15:33:00,
2014-03-03 16:38:00,52.2,41.6,29.21,ESE,113,6.9,8.7,67,0.00,,,0.05,WUHU216HW,2014-03-03 15:38:00,
2014-03-03 16:43:00,52.2,41.1,29.21,South,180,5.4,8.7,66,0.00,,,0.05,WUHU216HW,2014-03-03 15:43:00,
2014-03-03 16:48:00,52.2,40.8,29.21,South,180,7.4,7.4,65,0.00,,,0.05,WUHU216HW,2014-03-03 15:48:00,
2014-03-03 16:53:00,52.2,41.1,29.21,South,180,6.7,7.4,66,0.00,,,0.05,WUHU216HW,2014-03-03 15:53:00,
2014-03-03 16:58:00,52.2,41.1,29.21,South,180,6.7,6.7,66,0.00,,,0.05,WUHU216HW,2014-03-03 15:58:00,
2014-03-03 17:03:00,51.8,41.7,29.21,SSW,203,4.0,5.4,68,0.00,,,0.05,WUHU216HW,2014-03-03 16:03:00,
2014-03-03 17:08:00,52.2,42.4,29.21,SSE,158,4.0,5.8,69,0.00,,,0.05,WUHU216HW,2014-03-03 16:08:00,
2014-03-03 17:13:00,52.2,41.6,29.22,South,180,4.5,6.3,67,0.00,,,0.05,WUHU216HW,2014-03-03 16:13:00,
2014-03-03 17:18:00,52.2,41.6,29.22,SSE,158,4.0,6.3,67,0.00,,,0.05,WUHU216HW,2014-03-03 16:18:00,
2014-03-03 17:23:00,52.2,41.6,29.22,South,180,5.4,6.9,67,0.00,,,0.05,WUHU216HW,2014-03-03 16:23:00,
2014-03-03 17:28:00,52.2,41.9,29.22,SSE,158,3.4,6.9,68,0.00,,,0.05,WUHU216HW,2014-03-03 16:28:00,
2014-03-03 17:33:00,52.4,42.1,29.22,SSE,158,5.4,6.0,68,0.00,,,0.05,WUHU216HW,2014-03-03 16:33:00,
2014-03-03 17:38:00,52.2,41.6,29.22,SSE,158,3.8,6.0,67,0.00,,,0.05,WUHU216HW,2014-03-03 16:38:00,
2014-03-03 17:43:00,51.8,41.7,29.23,SSE,158,2.5,6.0,68,0.00,,,0.05,WUHU216HW,2014-03-03 16:43:00,
2014-03-03 17:48:00,51.5,41.3,29.23,SSE,158,4.0,5.4,68,0.00,,,0.05,WUHU216HW,2014-03-03 16:48:00,
2014-03-03 17:53:00,50.9,40.8,29.23,SE,135,0.9,4.0,68,0.00,,,0.05,WUHU216HW,2014-03-03 16:53:00,
2014-03-03 17:58:00,50.8,40.6,29.24,ESE,113,2.2,3.4,68,0.00,,,0.05,WUHU216HW,2014-03-03 16:58:00,
2014-03-03 18:03:00,50.4,40.7,29.24,SE,135,0.9,2.2,69,0.00,,,0.05,WUHU216HW,2014-03-03 17:03:00,
2014-03-03 18:08:00,50.4,40.7,29.24,SSE,158,1.8,1.8,69,0.00,,,0.05,WUHU216HW,2014-03-03 17:08:00,
2014-03-03 18:13:00,50.0,40.7,29.24,SE,135,1.6,3.4,70,0.00,,,0.05,WUHU216HW,2014-03-03 17:13:00,
2014-03-03 18:18:00,49.9,40.5,29.24,SSE,158,2.2,3.4,70,0.00,,,0.05,WUHU216HW,2014-03-03 17:18:00,
2014-03-03 18:23:00,49.3,39.6,29.24,SE,135,3.4,3.4,69,0.00,,,0.05,WUHU216HW,2014-03-03 17:23:00,
2014-03-03 18:28:00,49.0,39.3,29.25,ESE,113,1.8,3.4,69,0.00,,,0.05,WUHU216HW,2014-03-03 17:28:00,
2014-03-03 18:33:00,48.6,39.2,29.25,South,180,1.1,2.9,70,0.00,,,0.05,WUHU216HW,2014-03-03 17:33:00,
2014-03-03 18:38:00,48.6,39.6,29.25,SE,135,1.3,2.5,71,0.00,,,0.05,WUHU216HW,2014-03-03 17:38:00,
2014-03-03 18:43:00,48.4,39.4,29.25,South,180,0.7,2.0,71,0.00,,,0.05,WUHU216HW,2014-03-03 17:43:00,
2014-03-03 18:48:00,48.2,39.6,29.26,ESE,113,0.0,2.0,72,0.00,,,0.05,WUHU216HW,2014-03-03 17:48:00,
2014-03-03 18:53:00,48.2,39.6,29.26,ESE,113,1.1,1.1,72,0.00,,,0.05,WUHU216HW,2014-03-03 17:53:00,
2014-03-03 18:58:00,48.1,39.4,29.26,ESE,113,0.7,1.1,72,0.00,,,0.05,WUHU216HW,2014-03-03 17:58:00,
2014-03-03 19:03:00,47.9,39.2,29.26,East,90,0.4,1.3,72,0.00,,,0.05,WUHU216HW,2014-03-03 18:03:00,
2014-03-03 19:08:00,47.7,39.1,29.26,East,90,1.3,1.8,72,0.00,,,0.05,WUHU216HW,2014-03-03 18:08:00,
2014-03-03 19:13:00,47.3,38.8,29.27,NE,45,1.1,1.8,72,0.00,,,0.05,WUHU216HW,2014-03-03 18:13:00,
2014-03-03 19:18:00,47.2,38.6,29.27,ESE,113,1.8,1.8,72,0.00,,,0.05,WUHU216HW,2014-03-03 18:18:00,
2014-03-03 19:23:00,47.0,38.4,29.27,ESE,113,1.6,1.8,72,0.00,,,0.05,WUHU216HW,2014-03-03 18:23:00,
2014-03-03 19:28:00,46.8,38.6,29.27,ESE,113,0.4,1.8,73,0.00,,,0.05,WUHU216HW,2014-03-03 18:28:00,
2014-03-03 19:33:00,46.6,38.4,29.27,ESE,113,2.0,2.2,73,0.00,,,0.05,WUHU216HW,2014-03-03 18:33:00,
2014-03-03 19:38:00,46.4,38.3,29.27,ESE,113,2.5,2.9,73,0.00,,,0.05,WUHU216HW,2014-03-03 18:38:00,
2014-03-03 19:43:00,46.1,37.9,29.28,ESE,113,1.1,2.9,73,0.00,,,0.05,WUHU216HW,2014-03-03 18:43:00,
2014-03-03 19:48:00,45.9,37.7,29.28,East,90,1.6,2.5,73,0.00,,,0.05,WUHU216HW,2014-03-03 18:48:00,
2014-03-03 19:53:00,45.7,37.9,29.28,ESE,113,1.8,2.5,74,0.00,,,0.05,WUHU216HW,2014-03-03 18:53:00,
2014-03-03 19:58:00,45.7,37.9,29.28,East,90,1.6,2.5,74,0.00,,,0.05,WUHU216HW,2014-03-03 18:58:00,
2014-03-03 20:03:00,45.5,37.7,29.28,East,90,2.2,2.5,74,0.00,,,0.05,WUHU216HW,2014-03-03 19:03:00,
2014-03-03 20:08:00,45.4,37.5,29.28,ENE,68,1.8,2.5,74,0.00,,,0.05,WUHU216HW,2014-03-03 19:08:00,
2014-03-03 20:13:00,45.4,37.5,29.29,ESE,113,2.5,3.4,74,0.00,,,0.05,WUHU216HW,2014-03-03 19:13:00,
2014-03-03 20:18:00,45.2,37.4,29.29,ENE,68,2.0,3.4,74,0.00,,,0.05,WUHU216HW,2014-03-03 19:18:00,
2014-03-03 20:23:00,45.0,37.2,29.29,SE,135,1.6,2.7,74,0.00,,,0.05,WUHU216HW,2014-03-03 19:23:00,
2014-03-03 20:28:00,45.0,37.2,29.29,ESE,113,0.9,2.7,74,0.00,,,0.05,WUHU216HW,2014-03-03 19:28:00,
2014-03-03 20:33:00,45.0,37.2,29.29,East,90,2.0,2.0,74,0.00,,,0.05,WUHU216HW,2014-03-03 19:33:00,
2014-03-03 20:38:00,45.0,37.2,29.30,East,90,1.1,2.0,74,0.00,,,0.05,WUHU216HW,2014-03-03 19:38:00,
2014-03-03 20:43:00,44.8,37.0,29.30,ENE,68,0.9,2.0,74,0.00,,,0.05,WUHU216HW,2014-03-03 19:43:00,
2014-03-03 20:48:00,44.6,36.8,29.30,ENE,68,1.1,1.8,74,0.00,,,0.05,WUHU216HW,2014-03-03 19:48:00,
2014-03-03 20:53:00,44.5,36.6,29.31,ESE,113,0.4,1.8,74,0.00,,,0.05,WUHU216HW,2014-03-03 19:53:00,
2014-03-03 20:58:00,44.5,36.6,29.31,East,90,1.3,1.6,74,0.00,,,0.05,WUHU216HW,2014-03-03 19:58:00,
2014-03-03 21:03:00,44.3,36.8,29.31,ESE,113,2.9,2.9,75,0.00,,,0.05,WUHU216HW,2014-03-03 20:03:00,
2014-03-03 21:08:00,44.1,36.6,29.32,SE,135,1.3,2.9,75,0.00,,,0.05,WUHU216HW,2014-03-03 20:08:00,
2014-03-03 21:13:00,43.9,36.5,29.32,ESE,113,2.2,2.9,75,0.00,,,0.05,WUHU216HW,2014-03-03 20:13:00,
2014-03-03 21:18:00,43.9,36.8,29.32,ENE,68,0.9,2.9,76,0.00,,,0.05,WUHU216HW,2014-03-03 20:18:00,
2014-03-03 21:23:00,43.9,36.8,29.32,ESE,113,2.9,2.9,76,0.00,,,0.05,WUHU216HW,2014-03-03 20:23:00,
2014-03-03 21:28:00,43.9,36.8,29.32,East,90,2.2,2.9,76,0.00,,,0.05,WUHU216HW,2014-03-03 20:28:00,
2014-03-03 21:33:00,43.9,36.8,29.32,East,90,3.4,3.4,76,0.00,,,0.05,WUHU216HW,2014-03-03 20:33:00,
2014-03-03 21:38:00,43.7,36.6,29.33,ENE,68,1.1,3.4,76,0.00,,,0.05,WUHU216HW,2014-03-03 20:38:00,
2014-03-03 21:43:00,43.7,36.6,29.33,East,90,2.2,2.2,76,0.00,,,0.05,WUHU216HW,2014-03-03 20:43:00,
2014-03-03 21:48:00,43.7,36.6,29.33,ESE,113,2.9,3.6,76,0.00,,,0.05,WUHU216HW,2014-03-03 20:48:00,
2014-03-03 21:53:00,43.7,37.0,29.33,ENE,68,2.5,3.6,77,0.00,,,0.05,WUHU216HW,2014-03-03 20:53:00,
2014-03-03 21:58:00,43.7,37.0,29.33,East,90,0.9,3.6,77,0.00,,,0.05,WUHU216HW,2014-03-03 20:58:00,
2014-03-03 22:03:00,43.7,37.0,29.33,ESE,113,2.5,3.6,77,0.00,,,0.05,WUHU216HW,2014-03-03 21:03:00,
2014-03-03 22:08:00,43.7,37.0,29.33,ENE,68,2.5,3.4,77,0.00,,,0.05,WUHU216HW,2014-03-03 21:08:00,
2014-03-03 22:13:00,43.9,37.2,29.34,East,90,2.2,4.0,77,0.00,,,0.05,WUHU216HW,2014-03-03 21:13:00,
2014-03-03 22:18:00,43.9,37.2,29.34,ESE,113,3.4,4.0,77,0.00,,,0.05,WUHU216HW,2014-03-03 21:18:00,